Regional Weather Roundup
Issued by NWS

Home | Current Version | Previous Version | Text Only | Print | Product List | Glossary On
Versions: 1 2 3 4 5 6 7 8 9 10 11 12 13 14 15 16 17 18 19 20 21 22 23 24 25 26 27 28 29 30 31 32 33 34 35 36 37 38 39 40 41 42 43 44 45 46 47 48 49 50
000
ASUS45 KSLC 251110
RWRUT

UTAH REGIONAL WEATHER ROUNDUP
NATIONAL WEATHER SERVICE SALT LAKE CITY UT
500 AM MDT SUN JUN 25 2017

UTZ001>011-023>025-251200-

NORTHERN UTAH

CITY           SKY/WX    TMP DP  RH WIND       PRES   REMARKS
BRIGHAM CITY   CLEAR     60  41  49 CALM      30.18S
HILL AFB       CLEAR     63  37  37 E21       30.19S
LOGAN          CLEAR     53  46  77 CALM      30.22R
OGDEN          CLEAR     60  39  45 S7        30.17S
SALT LAKE CITY CLEAR     65  42  43 CALM      30.16R
TOOELE VALLEY  CLEAR     54  32  43 S8        30.18S
WENDOVER         N/A     70  31  23 CALM      30.16S
HEBER CITY     CLEAR     41  36  81 CALM      30.28R
WEST JORDAN    CLEAR     62  44  51 CALM      30.20R

$$

UTZ011>015-024>027-251200-

CENTRAL/NORTHEAST UTAH

CITY           SKY/WX    TMP DP  RH WIND       PRES   REMARKS
PROVO AIRPORT  CLEAR     59  38  45 S3        30.20R
MOAB/CANYONLAN CLEAR     69  22  16 CALM      30.10R
DELTA          PTCLDY    55  32  41 N3        30.18R
PRICE          PTCLDY    63  26  24 N6        30.23R
VERNAL         CLEAR     62  33  33 NW7       30.23R

$$

UTZ013>016-019>022-027-251200-

SOUTHERN UTAH

CITY           SKY/WX    TMP DP  RH WIND       PRES   REMARKS
BRYCE CANYON   PTCLDY    43  24  47 W9        30.37R
CEDAR CITY     CLEAR     54  24  31 NE3       30.20S
MILFORD        CLEAR     53  17  24 N3        30.18R
ST GEORGE      SUNNY     84  24  11 NE3       29.94R
HANKSVILLE     CLEAR     63  21  20 SE3       30.15R
BLANDING       CLEAR     69  22  16 N9        30.26R

$$

REGIONAL REPORTS     COLORADO/ARIZONA

CITY           SKY/WX    TMP DP  RH WIND       PRES   REMARKS
CRAIG, CO      CLEAR     42  35  76 CALM      30.32R
GRAND JUNCTION CLEAR     68  27  21 E13       30.17R
RIFLE, CO      CLEAR     51  29  42 E5        30.27R
MONTROSE, CO   CLOUDY    53  32  44 S5        30.26S
CORTEZ, CO     CLOUDY    48  28  46 E7        30.23R
COLORADO CITY    N/A     68  27  21 E5        30.13R
PAGE, AZ       PTCLDY    78  23  13 W3        30.05R
GRAND CANYON   MOCLDY    58  28  32 CALM      30.24S
KINGMAN, AZ    MOCLDY    84  29  13 N3        29.94R
FLAGSTAFF, AZ  CLOUDY    67  33  28 SW9       30.27R

$$

REGIONAL REPORTS    NEVADA/IDAHO/WYOMING

CITY           SKY/WX    TMP DP  RH WIND       PRES   REMARKS
LAS VEGAS, NV  MOCLDY    95  29   9 W7        29.83S
ELY, NY        CLEAR     47  21  35 S14       30.29S
ELKO, NV       CLEAR     55  37  50 CALM      30.22S
POCATELLO, ID  CLEAR     49  43  80 E3        30.24R
BURLEY, ID     CLEAR     49  41  74 S3        30.19R
FORT BRIDGER,    N/A     48  32  53 N6        30.42R
EVANSTON, WY   CLOUDY    51  35  54 E12       30.38S
ROCK SPRINGS,  CLEAR     50  31  48 NE14      30.38R
KEMMERER, WY     N/A     48  32  53 N10       30.42R

$$



USA.gov is the U.S. government's official web portal to all federal, state and local government web resources and services.